STARLINK-5547, 55352

Orbit data source: Space-Track

STARLINK-5547, 55352 is a payload satellite owned by SpaceX/Seattle (US) in LEO that was launched on Thu, 26 Jan 2023 UTC via an FALCON 9 launch vehicle from the Air Force Eastern Test Range (AFETR). Payload-class satellites include a variety of spacecraft equipped with specific instruments for various scientific and technological missions. These include communications satellites like Starlink; space stations such as the ISS; scientific satellites like the Hubble; Earth observation satellites from companies like Planet Labs, Umbra, and HawkEye 360; GPS; miniature CubeSats for education and research; and military/defense satellites.

Loading next visibility...
Identifier
55352, 2023-013X
Orbit
LEO
Country
Flag of USUS
Related business
Manufacturer
SpaceX/Seattle
Mission
Operational Commercial Communications
Bus & Motor
STARLINK, Unknown motor
Mass
305 kg wet, ~290 kg dry
Launch date (UTC)
2023-01-26 (3 years ago)
Launch vehicle
FALCON 9
Launch site
Air Force Eastern Test Range (AFETR)
Object type
Payload
Rocket body
Debris
Shape & HBR
Box + 1 Pan, 10.1 m
Radar Cross Section
13.562 m², Large (>1 m²)

Expand to show TLE details & history
Last TLE update: 3 days ago

TLE from 3 days ago
0 STARLINK-5547
1 55352U 23013X   26170.10586009  .00000486  00000-0  27190-4 0  9995
2 55352  43.0046  87.2591 0001383 266.0606  94.0088 15.27579559187226
Epoch: 2026-06-19T02:32Z
TLE epoch observation values (Epoch: 2026-06-19T02:32:26.311Z)
Latitude
-0°
Longitude
141.80986°
Altitude
482.893 km
Speed
7.626 km/s
True Right ascension
05h 49m 02s
True Declination
0° 00' 00"
Sunlit
Object was in daylight at epoch
Visualization orbit readout
Latitude
Unknown
Longitude
Unknown
Altitude
Unknown
Speed
Unknown
Apparent Right ascension
Unknown
Apparent Declination
Unknown
Sunlit
N/A
Visualization observer readout
Local Sidereal Time
21:34:27
Azimuth
Unknown
Elevation
Unknown
Doppler factor
Unknown
Orbital elements
Apogee altitude
485.944 km
Perigee altitude
484.046 km
Semi-major axis
6,863.132 km
Eccentricity
0.00014
Inclination
43.0046°
RAAN
87.2591°
Arg. of periapsis
266.0606°
True anomaly
94.02461°
Mean anomaly
94.0088°
Eccentric anomaly
94.0167°
Mean motion
3.81733 °/min
Orbital period
94.31 mins
BSTAR
0.00002719
Loading maneuver chart data...
Computing Atmospheric mass density...
Loading historical data...
Loading historical data...
Loading historical data...
Loading historical data...
Loading historical data...
Loading historical data...
Loading historical data...

Documentation

Showing up to 5 results
|